Regional Weather Roundup
Issued by NWS Green Bay, WI

Home | Current Version | Previous Version | Graphics & Text | Print | Product List | Glossary Off
Versions: 1 2 3 4 5 6 7 8 9 10 11 12 13 14 15 16 17 18 19 20 21 22 23 24 25 26 27 28 29 30 31 32 33 34 35 36 37 38 39 40 41 42 43 44 45 46 47 48 49 50

000
ASUS43 KGRB 292211
RWRGRB

NORTH-CENTRAL AND NORTHEAST WISCONSIN REGIONAL WEATHER ROUNDUP
NATIONAL WEATHER SERVICE GREEN BAY WI
500 PM CDT FRI MAY 29 2015

WIZ005-009-010>012-018-019-292300-
NORTH CENTRAL WISCONSIN

CITY           SKY/WX    TMP DP  RH WIND       PRES   REMARKS
IRONWOOD       CLOUDY    61  57  88 NW10      29.90R
MANITOWISH WTR RAIN      61  61  99 N3        29.91R
ARBOR VITAE    CLOUDY    69  64  82 CALM      29.89F
EAGLE RIVER    LGT RAIN  67  60  77 W5        29.89S
LAND O LAKES   CLOUDY    69  60  71 W7        29.90S
RHINELANDER    CLOUDY    68  62  81 NW3       29.90S
PHILLIPS       RAIN      63  61  94 NW6       29.90R
ANTIGO         LGT RAIN  68  64  86 NW10      29.88S
TOMAHAWK       CLOUDY    67  63  85 W5        29.90S
MERRILL        LGT RAIN  70  66  86 W3        29.89R
$$

WIZ013-073-292300-
NORTHEAST WISCONSIN

CITY           SKY/WX    TMP DP  RH WIND       PRES   REMARKS
IRON MOUNTAIN  LGT RAIN  74  62  66 W12       29.85R
MARINETTE      CLOUDY    75  64  69 S14       29.85F
OCONTO         PTSUNNY   73  66  79 S7        29.86F
$$

WIZ017-030-035>037-045-292300-
CENTRAL WISCONSIN

CITY           SKY/WX    TMP DP  RH WIND       PRES   REMARKS
MEDFORD        CLOUDY    68  64  86 W5        29.90R
WAUSAU         CLOUDY    70  64  81 NW15G21   29.86R THUNDER
MOSINEE        PTSUNNY   73  64  73 SW7       29.87F
MARSHFIELD     TSTM      70  63  78 W12       29.88R
WISC RAPIDS    PTSUNNY   73  63  70 NW5       29.87F
STEVENS POINT  CLOUDY    76  61  58 SW8       29.86F
WAUPACA        PTSUNNY   82  66  59 SE10      29.85F
SHAWANO        MOSUNNY   81  64  56 SW7       29.86F
CLINTONVILLE   PTSUNNY   79  63  57 S7        29.85F
$$

WIZ038-039-048-051-292300-
FOX VALLEY

CITY           SKY/WX    TMP DP  RH WIND       PRES   REMARKS
NWS GREEN BAY  PTSUNNY   75  66  73 S12       29.87F
APPLETON       PTSUNNY   75  63  64 S12       29.88F
OSHKOSH        MOSUNNY   76  68  76 S10       29.87F
FOND DU LAC    PTSUNNY   78  65  63 S12       29.87F
$$

WIZ022-050-052-292300-
EAST CENTRAL WISCONSIN

CITY           SKY/WX    TMP DP  RH WIND       PRES   REMARKS
STURGEON BAY   CLOUDY    73  64  73 S17       29.90F
MANITOWOC      CLOUDY    68  63  84 E7        29.90F
SHEBOYGAN      LGT RAIN  70  66  87 S12       29.90F FOG
$$

LMZ563-521-522-541>543-292300-
LAKESHORE

STATION/POSITION TIME  TEMP    WIND        PRES    VSBY  WAVE
                       AIR SEA DIR/SP/G                  HT/PER
                 (UTC) (F)     (DEG/KT/KT) (MB)    (MI)  (FT/S)
SHEBOYGAN LKSHOR 2200   65     180/ 17/ 18 1012.4F
KEWAUNEE LKSHORE 2100   51     180/ 12/ 13 1012.6F
ALGOMA MARINA    2108          210/ 10/ 13   N/A
NORTHPORT PIER   2200   66     160/  6/ 15 1011.5F
N MID LAKE BUOY  2150   42 37  220/  8/ 10 1012.9F         1/ 3
SISTER BAY LKSHO 2118   68     190/ 17/ 20   N/A
STURGEON BAY CG  2055   46 45  170/  9     1014.1    5/8   1
CHAMBERS ISLAND  2100   71     140/  5/ 12 1011.9F
MENOMINEE LKSHOR 2100   63     150/ 14/ 16 1012.3F
$$



USA.gov is the U.S. government's official web portal to all federal, state and local government web resources and services.